Location: Unspecified
(33.9360°N, 0.0000°E)
Time: 14:44:04
(UTC+00:00)

Tiangong 2 - Visible Passes

Search period start: 19 May 2019 00:00
Search period end: 29 May 2019 00:00
Orbit: 378 x 387 km, 42.8° (Epoch: 19 May)

Date Brightness Start Highest point End Pass type
(mag) Time Alt. Az. Time Alt. Az. Time Alt. Az.
19 May 1.0 20:19:00 10° WSW 20:22:07 86° NNW 20:24:17 18° ENE visible
20 May 3.0 20:56:09 10° W 20:58:56 28° NNW 21:00:26 19° NNE visible
21 May 2.1 19:55:47 10° W 19:58:49 46° NNW 20:01:50 10° NE visible
21 May 3.9 21:33:48 10° NW 21:36:00 17° N 21:36:03 17° N visible
22 May 3.6 20:33:15 10° WNW 20:35:44 21° NNW 20:38:13 10° NE visible
22 May 4.7 22:11:04 10° NW 22:11:18 11° NW 22:11:18 11° NW visible
23 May 3.1 19:32:44 10° W 19:35:32 29° NNW 19:38:19 10° NE visible
23 May 3.8 21:10:49 10° NW 21:12:52 16° N 21:14:08 13° NNE visible
24 May 3.8 20:10:21 10° NW 20:12:33 17° N 20:14:45 10° NE visible
24 May 4.1 21:47:41 10° NW 21:49:00 16° NNW 21:49:00 16° NNW visible
25 May 3.8 20:47:37 10° NW 20:49:42 16° N 20:51:37 11° NE visible
26 May 3.8 19:47:19 10° NW 19:49:22 16° N 19:51:24 10° NE visible
26 May 3.3 21:24:09 10° NW 21:26:19 23° N 21:26:19 23° N visible
27 May 3.5 20:24:11 10° NW 20:26:29 18° N 20:28:46 10° ENE visible
27 May 4.3 22:00:30 10° NW 22:01:00 14° NW 22:01:00 14° NW visible
28 May 2.4 21:00:32 10° NW 21:03:26 33° NNE 21:03:30 33° NNE visible
